sat.trackr.live / text

‹ back to catalog

STARLINK-36930

NORAD 68018 · 2026-040D

PAYLOAD ACTIVE UNKNOWN

§ Identity

Operator
Country
US
Launch date
2026-03-01
Launch site
AFWTR
Launch vehicle
Mass (kg)
RCS (m²)

Purposes: comms

External: N2YO · Heavens-Above · Gunter

§ Orbital elements

Epoch: 2026-09-20T02:42:02.966976Z

Period
93.91 min
Inclination
97.2861°
Eccentricity
0.0001837
Mean motion
15.33449312 rev/d
Perigee alt
464.3 km
Apogee alt
466.8 km
Semi-major
6,843.7 km
B*
4.6181e-4
RAAN
210.3855°
Arg perigee
93.2552°
Mean anomaly
266.8901°
Rev number
3,125

§ Raw data

STARLINK-369301 68018U 26040D   26263.11253434  .00014866  00000+0  46181-3 0  99942 68018  97.2861 210.3855 0001837  93.2552 266.8901 15.33449312 31255

JSON: /api/v1/satellites/68018 · /tle

For live sub-satellite position, see the globe view (requires WebGL).

§ Visibility from observer

Set your observer location to see the next 7 days of passes ≥ 10°. The values pass through the URL so the page stays shareable.

No JS? Fill the form by hand. The geolocation button needs JavaScript.